Location: Avully
(45.9633°N, 6.0228°E)
Time: 13:16:03
(UTC+00:00)

ATLAS 2AS CENTAUR R/B - Pass Details

Date: 23 May 2024
Orbit: 1017 x 1194 km, 63.7° (Epoch: 18 June)

Event Time Altitude Azimuth Distance (km) Brightness Sun altitude
Rises 01:31:15 0° 321° (NW) 3,918 5.9 -18.2°
Reaches altitude 10° 01:34:11 10° 329° (NNW) 2,931 5.4 -17.9°
Maximum altitude 01:40:38 40° 38° (NE) 1,502 4.1 -17.3°
Drops below altitude 10° 01:46:51 10° 107° (ESE) 2,825 5.1 -16.8°
Sets 01:49:37 0° 115° (ESE) 3,761 5.7 -16.5°
